Turksat 4A

operational
NORAD ID: 39522 Int'l Des: 2014-007 Owner: TURKS Country: TR
HEOCIRCULARGSOGEO

About Turksat 4A

Description loading...

Live Position

Loading 3D Globe...

Upcoming Passes

Altitude History

Altitude vs Time

uPlot chart will show altitude changes over time

Two-Line Element Set

1 39522U 14007A 26015.80918598 .00000164 00000-0 00000+0 0 9995
2 39522 0.0865 279.3236 0005098 11.9041 157.3797 1.00278109 43444
Epoch: Jan 15, 2026 • Age: 15 hours

Current Status

Altitude 35763.8 km
Velocity 3.08 km/s
Sub-Earth Point 0.01°N, 42.09°E
Launch Date Feb 14, 2014
Age 11.9 years
Type other

Technical Details

Classification Payload
Mass 4850.00 kg
Dry Mass 2500.00 kg
Total Mass 4850.00 kg
Length 6.20 m
Diameter 3.80 m
Span 31.60 m
Shape Box + 2 pan
Manufacturer MELCO
Bus Type DS-2000
Phase Status In Orbit
Owner/State TURKS/TR

Large Constellations

Loading constellations...